Change the Weather History Date:

Tuesday, March 27, 2012

  Actual Average Record
Temperature  
Mean Temperature 75 °F 74 °F  
Max Temperature 82 °F 81 °F 89 °F (1984)
Min Temperature 67 °F 66 °F 46 °F (1947)
Degree Days  
Heating Degree Days 0 0  
Month to date heating degree days 0 8  
Since 1 July heating degree days 55 124  
Cooling Degree Days 10 9  
Month to date cooling degree days 283 211  
Year to date cooling degree days 692 533  
Growing Degree Days 25 (Base 50)    
Moisture  
Dew Point 61 °F    
Average Humidity 67    
Maximum Humidity 87    
Minimum Humidity 47    
Precipitation  
Precipitation 0.02 in 0.11 in 1.99 in (1940)
Month to date precipitation 3.45 2.55  
Year to date precipitation 7.04 6.42  
Snow  
Snow 0.00 in - - ()
Month to date snowfall 0.0  
Since 1 July snowfall 0.0  
Snow Depth 0.00 in    
Sea Level Pressure  
Sea Level Pressure 30.09 in    
Wind  
Wind Speed 9 mph (NE)    
Max Wind Speed 18 mph    
Max Gust Speed 25 mph    
Visibility 10 miles    
Events Rain    
T = Trace of Precipitation, MM = Missing Value Source: NWS Daily Summary

Daily Weather History Graph

Daily Weather History Graph

Search for Another Location

Airport or City:

Trip Planner

Search our weather history database for the weather conditions in past years. The results will help you decide how hot, cold, wet, or windy it might be!

Date:

Astronomy

Mar. 27, 2012 Rise Set
Actual Time 7:17 AM EDT 7:35 PM EDT
Civil Twilight 6:54 AM EDT 7:59 PM EDT
Nautical Twilight 6:27 AM EDT 8:25 PM EDT
Astronomical Twilight 6:00 AM EDT 8:53 PM EDT
Moon 10:15 AM EDT (3/27) No Moon Set
Length of Visible Light 13h 04m
Length of Day
12h 18m
Waxing Crescent, 22% of the Moon is Illuminated
Mar 27
Waxing Crescent
Mar 30
First Quarter
Apr 6
Full
Apr 13
Last Quarter
Apr 21
New

Hourly Weather History & Observations

Time (EDT) Temp. Heat Index Dew Point Humidity Pressure Visibility Wind Dir Wind Speed Gust Speed Precip Events Conditions
12:53 AM 71.1 °F - 59.0 °F 66% 30.01 in 10.0 mi Calm Calm - N/A   Clear
1:53 AM 69.1 °F - 57.9 °F 68% 30.01 in 10.0 mi Calm Calm - N/A   Partly Cloudy
2:53 AM 70.0 °F - 59.0 °F 68% 30.00 in 10.0 mi NW 3.5 mph - N/A   Clear
3:53 AM 69.1 °F - 60.1 °F 73% 30.00 in 10.0 mi Calm Calm - N/A   Partly Cloudy
4:53 AM 68.0 °F - 61.0 °F 78% 30.00 in 10.0 mi Calm Calm - N/A   Scattered Clouds
5:53 AM 68.0 °F - 63.0 °F 84% 30.02 in 10.0 mi WNW 4.6 mph - N/A   Mostly Cloudy
6:53 AM 68.0 °F - 63.0 °F 84% 30.04 in 5.0 mi Calm Calm - 0.00 in Rain Light Rain
7:53 AM 68.0 °F - 64.0 °F 87% 30.06 in 10.0 mi WNW 3.5 mph - 0.02 in   Mostly Cloudy
8:53 AM 70.0 °F - 64.0 °F 81% 30.08 in 10.0 mi NNW 4.6 mph - N/A   Mostly Cloudy
9:53 AM 75.0 °F - 64.0 °F 69% 30.10 in 10.0 mi NNE 5.8 mph - N/A   Mostly Cloudy
10:53 AM 77.0 °F - 63.0 °F 62% 30.11 in 10.0 mi East 12.7 mph 17.3 mph N/A   Mostly Cloudy
11:53 AM 80.6 °F 81.5 °F 60.8 °F 51% 30.12 in 10.0 mi ENE 12.7 mph - N/A   Mostly Cloudy
12:53 PM 79.0 °F - 60.1 °F 52% 30.12 in 10.0 mi ENE 12.7 mph - N/A   Mostly Cloudy
1:53 PM 82.0 °F 82.7 °F 61.0 °F 49% 30.12 in 10.0 mi East 13.8 mph 20.7 mph N/A   Mostly Cloudy
2:53 PM 79.0 °F - 61.0 °F 54% 30.11 in 10.0 mi ENE 15.0 mph - N/A   Mostly Cloudy
3:53 PM 81.0 °F 81.6 °F 60.1 °F 49% 30.11 in 10.0 mi ENE 15.0 mph - N/A   Scattered Clouds
4:53 PM 81.0 °F 81.6 °F 60.1 °F 49% 30.10 in 10.0 mi ENE 11.5 mph 23.0 mph N/A   Scattered Clouds
5:53 PM 79.0 °F - 61.0 °F 54% 30.10 in 10.0 mi ENE 10.4 mph - N/A   Scattered Clouds
6:53 PM 75.0 °F - 63.0 °F 66% 30.11 in 10.0 mi NE 9.2 mph 17.3 mph 0.00 in   Mostly Cloudy
7:53 PM 75.9 °F - 63.0 °F 64% 30.12 in 10.0 mi East 13.8 mph 18.4 mph N/A   Mostly Cloudy
8:53 PM 75.9 °F - 63.0 °F 64% 30.14 in 10.0 mi ENE 10.4 mph - N/A   Scattered Clouds
9:53 PM 75.0 °F - 60.1 °F 60% 30.15 in 10.0 mi ENE 10.4 mph - N/A   Scattered Clouds
10:53 PM 75.0 °F - 60.1 °F 60% 30.16 in 10.0 mi ENE 10.4 mph 18.4 mph N/A   Scattered Clouds
11:53 PM 73.9 °F - 57.0 °F 55% 30.17 in 10.0 mi East 13.8 mph - N/A   Scattered Clouds